sat.trackr.live / text

‹ back to catalog

STARLINK-6192

NORAD 56903 · 2023-083AD

PAYLOAD ACTIVE UNKNOWN

§ Identity

Operator
Country
US
Launch date
2023-06-12
Launch site
AFETR
Launch vehicle
Mass (kg)
RCS (m²)

Purposes: comms

External: N2YO · Heavens-Above · Gunter

§ Orbital elements

Epoch: 2026-09-19T18:18:02.064960Z

Period
94.27 min
Inclination
43.0030°
Eccentricity
0.0001237
Mean motion
15.27574935 rev/d
Perigee alt
482.2 km
Apogee alt
483.9 km
Semi-major
6,861.2 km
B*
7.5947e-7
RAAN
65.5566°
Arg perigee
267.2066°
Mean anomaly
92.8644°
Rev number
18,146

§ Raw data

STARLINK-61921 56903U 23083AD  26262.76252390 -.00000241  00000+0  75947-6 0  99962 56903  43.0030  65.5566 0001237 267.2066  92.8644 15.27574935181461

JSON: /api/v1/satellites/56903 · /tle

For live sub-satellite position, see the globe view (requires WebGL).

§ Visibility from observer

Set your observer location to see the next 7 days of passes ≥ 10°. The values pass through the URL so the page stays shareable.

No JS? Fill the form by hand. The geolocation button needs JavaScript.